sat.trackr.live / text

‹ back to catalog

STARLINK-11573 [DTC]

NORAD 62989 · 2025-031J

PAYLOAD ACTIVE UNKNOWN

§ Identity

Operator
Country
US
Launch date
2025-02-11
Launch site
AFETR
Launch vehicle
Mass (kg)
RCS (m²)

Purposes: comms

External: N2YO · Heavens-Above · Gunter

§ Orbital elements

Epoch: 2026-05-25T04:00:03.998880Z

Period
91.67 min
Inclination
43.0003°
Eccentricity
0.0001751
Mean motion
15.70872272 rev/d
Perigee alt
355.2 km
Apogee alt
357.6 km
Semi-major
6,734.5 km
B*
-8.2994e-4
RAAN
260.6562°
Arg perigee
263.5170°
Mean anomaly
263.0953°
Rev number
597

§ Raw data

STARLINK-11573 [DTC]1 62989U 25031J   26145.16671295 -.00105745  00000+0 -82994-3 0  99982 62989  43.0003 260.6562 0001751 263.5170 263.0953 15.70872272  5971

JSON: /api/v1/satellites/62989 · /tle

For live sub-satellite position, see the globe view (requires WebGL).

§ Visibility from observer

Set your observer location to see the next 7 days of passes ≥ 10°. The values pass through the URL so the page stays shareable.

No JS? Fill the form by hand. The geolocation button needs JavaScript.